[[{"header":{"parameterUnit":"m.s-1","parameterCategory":1,"la1":30.2991,"la2":30.254,"lo1":-89.0895,"lo2":-89.0444,"dy":0.0017,"dx":0.0017,"nx":28,"ny":28,"refTime":"2025-03-05T09:00:00:Z","depth":0,"parameterNumber":2,"parameterNumberName":"U-component_of_WINDS"},"data":[0,0,0,0,0,0,0,0,0,0,0,0,0,0,0,0,0,0,0,0,0,0,0,0,0,0,0,0,0,0,0,0,0,0,0,0,0,0,0,0,0,0,0,0,0,0,0,0,0,0,0,0,0,0,0,0,0,0,0.6394,0.6395,0,0.6417,0.6417,0.6417,0.6362,0.636,0.6359,0.6357,0.6383,0.6386,0.6388,0,0,0,0,0,0,0,0,0,0,0,0,0,0.6306,0.6308,0.6394,0.6395,0.6395,0.6417,0.6417,0.6417,0.6362,0.636,0.6358,0.6356,0.6383,0.6385,0.6388,0,0,0,0,0,0,0,0,0,0,0,0,0,0.6338,0.6309,0.6394,0.637,0.6368,0.6417,0.6417,0.6417,0.6363,0.636,0.6358,0.6355,0.6382,0.6385,0.6389,0.6463,0,0,0.6399,0.6401,0,0,0,0,0,0,0,0,0.6337,0.6342,0.6373,0.6372,0.637,0.6384,0.6396,0.6433,0.6363,0.6365,0.6357,0.6354,0.6386,0.6389,0.6399,0.6464,0.6465,0.64,0.6402,0.6403,0.6404,0,0,0,0,0,0,0,0.6335,0.6341,0.6403,0.6374,0.6372,0.6359,0.636,0.6402,0.639,0.6365,0.6361,0.6364,0.6384,0.6396,0.6399,0.6465,0.6399,0.6403,0.6405,0.6406,0.6591,0.6594,0,0,0,0,0,0,0.6335,0.6339,0.6403,0.6404,0.6346,0.6363,0.6364,0.6382,0.6389,0.6388,0.6366,0.6361,0.6391,0.6395,0.64,0.6486,0.6403,0.6406,0.6408,0.6588,0.6592,0.6595,0,0,0,0,0,0,0.6333,0.6341,0.6402,0.637,0.6377,0.6367,0.6387,0.6384,0.6395,0.639,0.6388,0.638,0.6389,0.6395,0.6447,0.6486,0.6408,0.6411,0.6585,0.6589,0.6593,0.6659,0,0,0,0,0,0,0.6331,0.6341,0.6369,0.6371,0.6379,0.6448,0.639,0.6386,0.6401,0.6395,0.6403,0.6401,0.6387,0.6442,0.645,0.6489,0.6414,0.6581,0.6587,0.6592,0.6653,0.6665,0.6675,0,0,0,0,0,0.6328,0.6387,0.637,0.6378,0.6413,0.645,0.6455,0.6436,0.6404,0.6432,0.6429,0.6401,0.6481,0.6448,0.6457,0.6497,0.6579,0.6585,0.6591,0.6649,0.6663,0.6675,0,0,0,0,0,0,0.6391,0.6387,0.6368,0.643,0.6441,0.6441,0.6475,0.6452,0.6473,0.6467,0.6444,0.6446,0.6502,0.6505,0.6469,0.6569,0.6524,0.6533,0.6565,0.6578,0.6589,0.6587,0.6417,0,0,0,0,0,0.6412,0.6441,0.6437,0.6492,0.6498,0.6486,0.6502,0.6486,0.6497,0.6501,0.6502,0.6514,0.6541,0.656,0.6585,0.6654,0.6654,0.6686,0.6697,0.6706,0.6713,0.6748,0.6762,0.6615,0.6615,0.6615,0,0,0.6456,0.6457,0.6478,0.6505,0.6511,0.6542,0.649,0.6526,0.6549,0.6507,0.6555,0.6557,0.6569,0.6629,0.6655,0.6633,0.6754,0.6714,0.6721,0.6724,0.6756,0.677,0.6783,0.662,0.6619,0.6618,0,0,0.6551,0.6556,0.6601,0.6608,0.6618,0.6609,0.662,0.6624,0.6622,0.667,0.6638,0.6666,0.6715,0.6724,0.6735,0.6833,0.6808,0.6842,0.6898,0.6933,0.6944,0.6954,0.6988,0.7,0.6849,0.6849,0.685,0,0.6604,0.6649,0.6628,0.6665,0.6678,0.664,0.6685,0.6694,0.6712,0.6722,0.6696,0.6754,0.676,0.6821,0.6845,0.6856,0.6867,0.684,0.6944,0.6954,0.6963,0.6995,0.7008,0.6853,0.6853,0.6853,0.6852,0,0.6714,0.6746,0.6782,0.6798,0.6815,0.6857,0.6841,0.6861,0.6845,0.6839,0.6888,0.6893,0.6917,0.6931,0.6916,0.699,0.6975,0.6948,0.6902,0.6981,0.7011,0.7023,0.6859,0.6858,0.6856,0.6855,0,0,0.685,0.6852,0.6866,0.6872,0.688,0.6904,0.6944,0.6967,0.6984,0.6998,0.703,0.7071,0.7045,0.7058,0.7043,0.7074,0.7149,0.7042,0.7042,0.706,0.7229,0.7249,0.7264,0.7133,0.7135,0.7137,0.7228,0,0.6942,0.7009,0.699,0.7057,0.7086,0.705,0.7085,0.7093,0.7089,0.7113,0.7109,0.7138,0.7101,0.7109,0.7137,0.7134,0.7183,0.7127,0.7163,0.7164,0.716,0.728,0.7301,0.7387,0.7239,0.7241,0.7243,0,0.706,0.7076,0.7145,0.7147,0.7158,0.7189,0.7208,0.7232,0.7241,0.7236,0.7249,0.7228,0.7268,0.7223,0.7277,0.7239,0.7253,0.7254,0.7256,0.7258,0.7208,0.7283,0.7414,0.7426,0.7261,0.726,0.7258,0,0.7149,0.7189,0.7235,0.7242,0.7246,0.7268,0.7271,0.7277,0.7292,0.7309,0.7318,0.734,0.7352,0.7369,0.7355,0.7324,0.7411,0.7365,0.7408,0.7408,0.7427,0.7426,0.756,0.7438,0.7438,0.7437,0.7437,0,0.7254,0.7298,0.7275,0.7304,0.7352,0.733,0.7378,0.7377,0.7383,0.741,0.7382,0.7409,0.7389,0.7414,0.7404,0.7449,0.7455,0.7452,0.7448,0.7454,0.7454,0.7462,0.7455,0.7441,0.744,0.7439,0.7439,0,0.7363,0.7349,0.7397,0.7396,0.7396,0.7432,0.7431,0.7457,0.745,0.7486,0.7493,0.7483,0.7511,0.7498,0.7529,0.7522,0.758,0.7569,0.7576,0.7573,0.7616,0.7611,0.7758,0.7776,0.7644,0.7645,0.7646,0,0.743,0.7462,0.7464,0.7479,0.7483,0.751,0.7524,0.7504,0.752,0.7532,0.7557,0.7583,0.7601,0.7648,0.7644,0.7667,0.7656,0.7706,0.7659,0.7663,0.7655,0.7653,0.7655,0.7715,0.7717,0.7718,0.7719,0,0.755,0.7541,0.7562,0.758,0.7598,0.7612,0.7623,0.7638,0.7619,0.7638,0.7666,0.7681,0.771,0.7736,0.7756,0.7759,0.7736,0.7734,0.7744,0.775,0.7752,0.775,0.76,0.773,0.7729,0.7728,0.7728,0.7727,0.7638,0.7665,0.7669,0.7693,0.77,0.7711,0.7735,0.7731,0.7753,0.7775,0.7762,0.7794,0.7802,0.7826,0.7832,0.7858,0.7838,0.7854,0.7858,0.7862,0.7867,0.7749,0.7861,0.7861,0.7861,0.786,0.786,0,0.7755,0.7756,0.7779,0.7795,0.7814,0.7789,0.78,0.7818,0.7846,0.7855,0.7874,0.7905,0.7929,0.7927,0.7949,0.797,0.7959,0.7976,0.7974,0.7975,0.7884,0.7871,0.7984,0.7984,0.7984,0.7984,0.7984,0.7984,0.7818,0.7861,0.7854,0.7899,0.79,0.793,0.7939,0.7949,0.7955,0.7991,0.8011,0.8008,0.8013,0.8035,0.8056,0.8055,0.8064,0.8084,0.8079,0.7994,0.7981,0.797,0.7958,0.8087,0.8087,0.8167,0.8168,0.8169]},{"header":{"parameterUnit":"m.s-1","parameterCategory":1,"la1":30.2991,"la2":30.254,"lo1":-89.0895,"lo2":-89.0444,"dy":0.0017,"dx":0.0017,"nx":28,"ny":28,"refTime":"2025-03-05T09:00:00:Z","depth":0,"parameterNumber":3,"parameterNumberName":"V-component_of_WINDS"},"data":[0,0,0,0,0,0,0,0,0,0,0,0,0,0,0,0,0,0,0,0,0,0,0,0,0,0,0,0,0,0,0,0,0,0,0,0,0,0,0,0,0,0,0,0,0,0,0,0,0,0,0,0,0,0,0,0,0,0,1.8228,1.8227,0,1.8186,1.8185,1.8185,1.8131,1.8131,1.813,1.8129,1.8086,1.8085,1.8085,0,0,0,0,0,0,0,0,0,0,0,0,0,1.826,1.826,1.8228,1.8227,1.8227,1.8186,1.8185,1.8185,1.8132,1.8131,1.813,1.8129,1.8086,1.8086,1.8085,0,0,0,0,0,0,0,0,0,0,0,0,0,1.8235,1.826,1.8228,1.8195,1.8192,1.8186,1.8185,1.8184,1.8132,1.8131,1.8129,1.8128,1.8086,1.8086,1.8085,1.8108,0,0,1.8083,1.8083,0,0,0,0,0,0,0,0,1.8237,1.8234,1.8201,1.8197,1.8194,1.8162,1.8181,1.8159,1.8132,1.8155,1.8129,1.8127,1.8112,1.811,1.8105,1.8106,1.8104,1.8083,1.8083,1.8083,1.8083,0,0,0,0,0,0,0,1.8239,1.8236,1.8211,1.82,1.8196,1.8182,1.8177,1.8176,1.8141,1.8153,1.8149,1.8144,1.811,1.8105,1.8103,1.8103,1.8083,1.8083,1.8083,1.8082,1.8118,1.8119,0,0,0,0,0,0,1.8245,1.8237,1.8212,1.821,1.8212,1.8183,1.8177,1.8174,1.8141,1.8135,1.8146,1.8142,1.8107,1.8104,1.8101,1.8124,1.8083,1.8082,1.8082,1.8116,1.8118,1.8119,0,0,0,0,0,0,1.8246,1.8244,1.8214,1.8222,1.8218,1.8184,1.818,1.8174,1.8168,1.8136,1.8129,1.8147,1.8106,1.8102,1.8106,1.8122,1.8082,1.8082,1.8115,1.8117,1.8119,1.817,0,0,0,0,0,0,1.8247,1.8244,1.8253,1.8223,1.8217,1.822,1.8181,1.8174,1.8168,1.8163,1.8135,1.8129,1.8104,1.8107,1.8105,1.812,1.8081,1.8113,1.8116,1.8118,1.8167,1.8173,1.8179,0,0,0,0,0,1.8249,1.8269,1.8253,1.8251,1.8227,1.8221,1.8218,1.8188,1.8169,1.8177,1.8156,1.813,1.812,1.8108,1.8106,1.812,1.8112,1.8115,1.8118,1.8164,1.8172,1.8179,0,0,0,0,0,0,1.8302,1.8265,1.8247,1.8259,1.8243,1.8212,1.8221,1.8198,1.8188,1.8184,1.8148,1.8142,1.815,1.8135,1.8122,1.8139,1.8112,1.8115,1.8148,1.8155,1.8162,1.8164,1.8081,0,0,0,0,0,1.8315,1.8313,1.8281,1.8294,1.8287,1.8256,1.8252,1.823,1.8213,1.8206,1.8185,1.8169,1.8162,1.8158,1.815,1.8165,1.8157,1.8173,1.818,1.8185,1.8187,1.8192,1.8198,1.8129,1.8129,1.8129,0,0,1.8342,1.8322,1.8323,1.8304,1.829,1.8288,1.8251,1.8251,1.8248,1.8206,1.8208,1.8192,1.8171,1.818,1.8183,1.8168,1.8205,1.8189,1.8193,1.8192,1.8195,1.8202,1.8208,1.8131,1.813,1.813,0,0,1.839,1.8375,1.8383,1.837,1.8348,1.8327,1.8329,1.8301,1.8288,1.829,1.8257,1.8254,1.8243,1.8229,1.8221,1.8262,1.8237,1.826,1.8292,1.8297,1.8303,1.8307,1.832,1.8325,1.8263,1.8263,1.8263,0,1.8426,1.8422,1.8391,1.8392,1.8384,1.8346,1.8354,1.8342,1.8319,1.8314,1.8298,1.8282,1.8266,1.827,1.828,1.8275,1.8275,1.8263,1.8304,1.8309,1.8313,1.8324,1.833,1.8266,1.8266,1.8265,1.8265,0,1.8467,1.8465,1.8474,1.8452,1.8446,1.845,1.8419,1.8416,1.8395,1.8375,1.8376,1.8355,1.834,1.834,1.832,1.8341,1.8332,1.8311,1.8283,1.8323,1.8333,1.8337,1.827,1.8269,1.8268,1.8267,0,0,1.8547,1.8507,1.8511,1.85,1.8473,1.847,1.8473,1.8459,1.8456,1.8441,1.8441,1.8432,1.8412,1.8403,1.838,1.8385,1.8416,1.8363,1.8362,1.8372,1.8435,1.845,1.8456,1.84,1.8401,1.8402,1.8436,0,1.8589,1.859,1.8562,1.8571,1.8568,1.8531,1.8532,1.8516,1.8497,1.8491,1.847,1.8463,1.8438,1.8432,1.8434,1.8412,1.8428,1.8409,1.8399,1.8399,1.8404,1.8462,1.8478,1.8512,1.8441,1.8441,1.8442,0,1.8637,1.8625,1.8634,1.8605,1.8602,1.8605,1.8588,1.8584,1.8563,1.8549,1.8538,1.8512,1.8511,1.8486,1.8483,1.847,1.8464,1.8452,1.8453,1.845,1.8422,1.8459,1.8522,1.8527,1.8448,1.8448,1.8447,0,1.8693,1.8678,1.8681,1.8673,1.864,1.8642,1.8628,1.8607,1.86,1.8586,1.858,1.8567,1.8559,1.8548,1.8519,1.8503,1.8519,1.8491,1.8506,1.8506,1.851,1.851,1.8572,1.8509,1.8509,1.8508,1.8508,0,1.8741,1.8748,1.8705,1.8707,1.8713,1.868,1.8686,1.8669,1.8649,1.8646,1.8614,1.8611,1.8574,1.8567,1.8544,1.8544,1.8541,1.8528,1.8522,1.8531,1.8532,1.8525,1.8522,1.851,1.8509,1.8509,1.8509,0,1.8804,1.8776,1.8776,1.8745,1.8737,1.8742,1.8715,1.8714,1.8693,1.869,1.8687,1.8654,1.8644,1.8614,1.8596,1.8581,1.8587,1.8576,1.8594,1.8589,1.8605,1.8603,1.8664,1.8669,1.8604,1.8605,1.8605,0,1.8836,1.884,1.8809,1.8804,1.8792,1.8785,1.8778,1.8745,1.8738,1.8714,1.8717,1.8704,1.8692,1.8677,1.8651,1.8637,1.8624,1.8646,1.8622,1.863,1.8622,1.8622,1.8621,1.8651,1.8652,1.8653,1.8653,0,1.8895,1.8881,1.8872,1.8857,1.8849,1.8836,1.8821,1.8819,1.8782,1.8776,1.8765,1.8756,1.8737,1.8724,1.8706,1.869,1.8665,1.8661,1.8664,1.8672,1.8681,1.8675,1.8606,1.866,1.8659,1.8659,1.8659,1.8658,1.8942,1.8944,1.8921,1.8911,1.8897,1.8883,1.8881,1.8859,1.885,1.8832,1.8813,1.8804,1.8782,1.8754,1.8741,1.8732,1.8719,1.8723,1.8724,1.8725,1.8728,1.8684,1.8729,1.8729,1.8728,1.8728,1.8728,0,1.8999,1.8982,1.8974,1.8953,1.8945,1.8923,1.8905,1.8899,1.8892,1.8873,1.8862,1.8849,1.8836,1.8808,1.8792,1.879,1.8778,1.8787,1.8786,1.8783,1.8741,1.874,1.8797,1.8797,1.8797,1.8797,1.8797,1.8797,1.9027,1.9027,1.901,1.9002,1.8986,1.8977,1.8968,1.8955,1.894,1.8926,1.8915,1.8898,1.8875,1.8857,1.8843,1.8835,1.883,1.8843,1.8831,1.8793,1.8786,1.878,1.8778,1.8842,1.8842,1.8873,1.8873,1.8873]}]]